Buena Vista, CO

4:46 AM MDT on April 24, 2017 (GMT -0600)
Buena Vista

Weather History for KAEJ - May, 2013

Change the Weather History Date:

Saturday, May 18, 2013

  Actual Average (KLXV) Record (KLXV)
Temperature  
Mean Temperature 52 °F -  
Max Temperature 64 °F 54 °F 68 °F (1991)
Min Temperature 41 °F 29 °F 20 °F (1980)
Degree Days  
Heating Degree Days 12    
Growing Degree Days 2 (Base 50)    
Moisture  
Dew Point 25 °F    
Average Humidity 38    
Maximum Humidity 65    
Minimum Humidity 18    
Precipitation  
Precipitation 0.00 in - - ()
Sea Level Pressure  
Sea Level Pressure 30.05 in    
Wind  
Wind Speed 7 mph (West)    
Max Wind Speed 29 mph    
Max Gust Speed 34 mph    
Visibility 10 miles    
Events Thunderstorm    
Averages and records for this station are not official NWS values.
T = Trace of Precipitation, MM = Missing Value Source: NWS Daily Summary

Daily Weather History Graph

Daily Weather History Graph

Search for Another Location

Airport or City:

Trip Planner

Search our weather history database for the weather conditions in past years. The results will help you decide how hot, cold, wet, or windy it might be!

Date:

Astronomy

May. 18, 2013 Rise Set
Actual Time 5:49 AM MDT 8:12 PM MDT
Civil Twilight 5:19 AM MDT 8:43 PM MDT
Nautical Twilight 4:41 AM MDT 9:20 PM MDT
Astronomical Twilight 4:00 AM MDT 10:02 PM MDT
Moon 1:22 PM MDT (5/18) 1:39 AM MDT (5/18)
Length of Visible Light 15h 24m
Length of Day
14h 23m
First Quarter, 56% of the Moon is Illuminated
May 18
First Quarter
May 24
Full
May 31
Last Quarter
Jun 8
New
Jun 16
First Quarter

Hourly Weather History & Observations

Time (MDT) Temp. Windchill Dew Point Humidity Pressure Visibility Wind Dir Wind Speed Gust Speed Precip Events Conditions
12:15 AM 47.3 °F - 21.7 °F 36% 30.06 in 10.0 mi NW 11.5 mph - N/A   Clear
12:35 AM 47.7 °F - 21.6 °F 36% 30.06 in 10.0 mi NW 10.4 mph - N/A   Clear
12:55 AM 46.2 °F 44.1 °F 23.2 °F 40% 30.07 in 10.0 mi North 4.6 mph - N/A   Clear
1:15 AM 46.4 °F - 21.6 °F 37% 30.07 in 10.0 mi Calm Calm - N/A   Clear
1:35 AM 46.2 °F - 23.0 °F 40% 30.07 in 10.0 mi Calm Calm - N/A   Clear
1:55 AM 46.0 °F 42.5 °F 22.8 °F 40% 30.07 in 10.0 mi NNW 6.9 mph - N/A   Clear
2:15 AM 43.5 °F 39.4 °F 22.8 °F 44% 30.07 in 10.0 mi SE 6.9 mph - N/A   Clear
2:35 AM 43.3 °F - 22.8 °F 44% 30.07 in 10.0 mi Calm Calm - N/A   Clear
2:55 AM 43.2 °F - 23.4 °F 46% 30.08 in 10.0 mi Calm Calm - N/A   Clear
3:15 AM 42.1 °F 38.4 °F 24.3 °F 49% 30.09 in 10.0 mi WNW 5.8 mph - N/A   Clear
3:35 AM 42.1 °F - 24.4 °F 50% 30.08 in 10.0 mi Calm Calm - N/A   Clear
3:55 AM 42.3 °F 40.5 °F 25.0 °F 50% 30.08 in 10.0 mi North 3.5 mph - N/A   Clear
4:15 AM 42.8 °F - 25.3 °F 50% 30.08 in 10.0 mi Calm Calm - N/A   Scattered Clouds
4:35 AM 42.8 °F 40.1 °F 26.6 °F 53% 30.09 in 10.0 mi SW 4.6 mph - N/A   Mostly Cloudy
4:55 AM 43.5 °F 40.1 °F 25.5 °F 49% 30.09 in 10.0 mi NW 5.8 mph - N/A   Scattered Clouds
5:15 AM 43.5 °F 41.9 °F 25.3 °F 49% 30.09 in 10.0 mi WNW 3.5 mph - N/A   Scattered Clouds
5:35 AM 43.5 °F - 24.3 °F 47% 30.09 in 10.0 mi Calm Calm - N/A   Scattered Clouds
5:55 AM 42.3 °F - 25.3 °F 51% 30.09 in 10.0 mi Calm Calm - N/A   Scattered Clouds
6:15 AM 42.1 °F 40.2 °F 25.0 °F 51% 30.11 in 10.0 mi NW 3.5 mph - N/A   Scattered Clouds
6:35 AM 42.6 °F 40.9 °F 24.6 °F 49% 30.11 in 10.0 mi NNW 3.5 mph - N/A   Scattered Clouds
6:55 AM 41.9 °F - 27.1 °F 56% 30.11 in 10.0 mi Calm Calm - N/A   Clear
7:15 AM 41.7 °F - 26.8 °F 55% 30.11 in 10.0 mi Calm Calm - N/A   Clear
7:35 AM 46.9 °F - 25.0 °F 42% 30.09 in 10.0 mi Calm Calm - N/A   Clear
7:55 AM 49.5 °F - 24.3 °F 37% 30.09 in 10.0 mi Calm Calm - N/A   Clear
8:15 AM 51.1 °F - 23.7 °F 34% 30.09 in 10.0 mi SE 3.5 mph - N/A   Clear
8:35 AM 52.0 °F - 23.5 °F 33% 30.09 in 10.0 mi ESE 5.8 mph - N/A   Clear
8:55 AM 54.3 °F - 23.2 °F 30% 30.08 in 10.0 mi ESE 6.9 mph - N/A   Clear
9:15 AM 56.1 °F - 21.7 °F 26% 30.09 in 10.0 mi ESE 5.8 mph - N/A   Clear
9:35 AM 59.9 °F - 19.9 °F 21% 30.08 in 10.0 mi ESE 8.1 mph - N/A   Mostly Cloudy
9:55 AM 59.4 °F - 19.4 °F 21% 30.07 in 10.0 mi Calm Calm - N/A   Mostly Cloudy
10:15 AM 61.0 °F - 20.5 °F 21% 30.07 in 10.0 mi WSW 9.2 mph 20.7 mph N/A   Scattered Clouds
10:35 AM 61.5 °F - 19.4 °F 20% 30.07 in 10.0 mi WSW 16.1 mph 26.5 mph N/A   Clear
10:55 AM 60.1 °F - 19.4 °F 21% 30.07 in 10.0 mi WSW 18.4 mph 25.3 mph N/A   Clear
11:15 AM 59.2 °F - 19.8 °F 22% 30.07 in 10.0 mi WSW 11.5 mph 23.0 mph N/A   Clear
11:35 AM 58.5 °F - 20.7 °F 23% 30.05 in 10.0 mi West 11.5 mph 16.1 mph N/A   Clear
11:55 AM 61.3 °F - 20.1 °F 20% 30.05 in 10.0 mi West 11.5 mph - N/A   Clear
12:15 PM 60.8 °F - 19.2 °F 20% 30.04 in 10.0 mi Calm Calm - N/A   Clear
12:35 PM 61.5 °F - 20.3 °F 20% 30.03 in 10.0 mi West 8.1 mph - N/A   Scattered Clouds
1:15 PM 62.1 °F - 18.5 °F 19% 30.01 in 10.0 mi WSW 9.2 mph - N/A   Overcast
1:35 PM 62.2 °F - 17.4 °F 18% 30.00 in 10.0 mi SW 6.9 mph - N/A   Mostly Cloudy
1:55 PM 59.7 °F - 24.4 °F 26% 30.01 in 10.0 mi WSW 28.8 mph 34.5 mph N/A   Mostly Cloudy
2:15 PM 61.7 °F - 26.6 °F 26% 30.00 in 10.0 mi West 10.4 mph - N/A   Mostly Cloudy
2:35 PM 62.6 °F - 22.6 °F 22% 29.99 in 10.0 mi WSW 12.7 mph 18.4 mph N/A   Scattered Clouds
2:55 PM 64.0 °F - 22.8 °F 21% 29.99 in 10.0 mi WNW 10.4 mph - N/A   Clear
3:15 PM 62.6 °F - 20.8 °F 20% 29.98 in 10.0 mi NW 5.8 mph - N/A   Clear
3:35 PM 58.5 °F - 21.6 °F 24% 29.99 in 10.0 mi WSW 24.2 mph 33.4 mph N/A Thunderstorm Mostly Cloudy
3:55 PM 58.3 °F - 21.6 °F 24% 30.00 in 10.0 mi East 3.5 mph 24.2 mph N/A   Overcast
4:15 PM 59.0 °F - 25.3 °F 28% 29.99 in 10.0 mi ENE 12.7 mph - N/A Thunderstorm Overcast
4:35 PM 58.3 °F - 27.9 °F 31% 29.99 in 10.0 mi NE 12.7 mph - N/A Thunderstorm Overcast
4:55 PM 57.6 °F - 26.4 °F 30% 29.99 in 10.0 mi SSE 5.8 mph 24.2 mph N/A   Overcast
5:15 PM 56.5 °F - 23.4 °F 28% 29.99 in 10.0 mi West 16.1 mph 23.0 mph N/A   Overcast
5:35 PM 55.9 °F - 23.4 °F 28% 29.99 in 10.0 mi West 9.2 mph - N/A   Overcast
5:55 PM 56.5 °F - 23.4 °F 28% 29.99 in 10.0 mi WSW 8.1 mph - N/A Thunderstorm Mostly Cloudy
6:15 PM 54.3 °F - 30.6 °F 40% 30.00 in 10.0 mi NW 24.2 mph 31.1 mph N/A   Overcast
6:35 PM 52.9 °F - 31.6 °F 44% 30.01 in 10.0 mi NW 23.0 mph 32.2 mph N/A   Mostly Cloudy
6:55 PM 51.8 °F - 31.6 °F 46% 30.02 in 10.0 mi West 20.7 mph 29.9 mph N/A   Mostly Cloudy
7:15 PM 47.1 °F - 34.7 °F 62% 30.04 in 10.0 mi West 25.3 mph 33.4 mph N/A   Overcast
7:35 PM 47.5 °F - 32.5 °F 56% 30.04 in 10.0 mi West 19.6 mph 31.1 mph N/A   Overcast
7:55 PM 46.6 °F - 32.9 °F 59% 30.05 in 10.0 mi West 17.3 mph 23.0 mph N/A   Overcast
8:15 PM 47.7 °F - 30.4 °F 51% 30.03 in 10.0 mi NW 4.6 mph - N/A   Overcast
8:35 PM 48.2 °F - 28.8 °F 47% 30.03 in 10.0 mi Calm Calm - N/A   Overcast
8:55 PM 48.2 °F - 29.5 °F 48% 30.02 in 10.0 mi West 5.8 mph - N/A   Overcast
9:15 PM 47.8 °F - 27.0 °F 44% 30.01 in 10.0 mi WSW 5.8 mph - N/A   Overcast
9:35 PM 46.6 °F - 26.8 °F 46% 30.02 in 10.0 mi West 6.9 mph - N/A   Scattered Clouds
9:55 PM 46.4 °F 41.1 °F 26.8 °F 46% 30.02 in 10.0 mi West 11.5 mph 18.4 mph N/A   Mostly Cloudy
10:15 PM 46.4 °F 40.7 °F 27.1 °F 47% 30.02 in 10.0 mi WSW 12.7 mph 20.7 mph N/A   Scattered Clouds
10:35 PM 45.9 °F 40.4 °F 27.9 °F 49% 30.03 in 10.0 mi NW 11.5 mph 21.9 mph N/A   Clear
10:55 PM 43.9 °F 39.9 °F 28.4 °F 55% 30.02 in 10.0 mi NW 6.9 mph - N/A   Clear
11:15 PM 43.0 °F 40.3 °F 31.1 °F 63% 30.02 in 10.0 mi NW 4.6 mph - N/A   Clear
11:35 PM 43.2 °F 39.7 °F 32.0 °F 65% 30.02 in 10.0 mi NNW 5.8 mph - N/A   Clear